Regional Weather Roundup
Issued by NWS

Home | Current Version | Previous Version | Text Only | Print | Product List | Glossary Off
Versions: 1 2 3 4 5 6 7 8 9 10 11 12 13 14 15 16 17 18 19 20 21 22 23 24 25 26 27 28 29 30 31 32 33 34 35 36 37 38 39 40 41 42 43 44 45 46 47 48 49 50

000
ASUS43 KDMX 291503
RWRIA

WEATHER ROUNDUP FOR IOWA
NATIONAL WEATHER SERVICE DES MOINES IA
1000 AM CDT THU SEP 29 2016

NOTE: "FAIR" INDICATES FEW OR NO CLOUDS BELOW 12,000 FEET WITH NO
SIGNIFICANT WEATHER AND/OR OBSTRUCTIONS TO VISIBILITY.

* - THESE STATIONS ARE NOT NWS STATIONS...THUS NOT UNDER NWS
QUALITY CONTROL.  THEY ALSO DO NOT REPORT WEATHER SUCH
AS PRECIPITATION OR FOG.

IAZ001>003-012>014-020>022-031>034-043>046-291600-
   NORTHWEST IOWA

CITY           SKY/WX    TMP DP  RH WIND       PRES   REMARKS
CARROLL *      CLOUDY    54  52  94 VRB3      30.44R
CHEROKEE *     SUNNY     53  52  99 N5        30.46S
DENISON *      CLOUDY    52  50  93 NE5       30.43S FOG
LE MARS *        N/A     54  48  82 NE5       30.48R
ORANGE CITY *  SUNNY     54  48  82 E5        30.47R
SHELDON *      SUNNY     55  52  88 VRB6      30.46R
SIOUX CITY     SUNNY     55  50  83 CALM      30.47R
SPENCER        SUNNY     56  51  84 NE6       30.47R
STORM LAKE *   SUNNY     55  52  88 NE6       30.45S
$$

IAZ055>058-069>071-079>083-090>094-291600-
   SOUTHWEST IOWA

CITY           SKY/WX    TMP DP  RH WIND       PRES   REMARKS
ATLANTIC *     MOSUNNY   54  52  94 NE7       30.43R
AUDUBON *      CLOUDY    52  50  93 N6        30.44S
CLARINDA *       N/A     57  52  82 MISG      30.43R HAZE
COUNCIL BLFS * SUNNY     54  50  87 N6        30.44S
CRESTON *      SUNNY     57  52  82 N10       30.41R
HARLAN  *      SUNNY     55  52  88 VRB7      30.47S
LAMONI         SUNNY     57  52  83 N10       30.38R
RED OAK *      SUNNY     57  54  88 N6        30.43S
SHENANDOAH *   SUNNY     57  52  82 N6        30.44R
$$

IAZ047>049-059>061-072>074-084-291600-
   CENTRAL IOWA

CITY           SKY/WX    TMP DP  RH WIND       PRES   REMARKS
AMES           SUNNY     58  54  86 N9        30.40S
ANKENY *         N/A    N/A N/A N/A MISG        N/A
BOONE *        CLOUDY    54  52  94 N9        30.41R
CHARITON *       N/A     59  52  77 N12       30.37R
DES MOINES     MOSUNNY   61  52  72 NE9       30.39R
GRINNELL*      SUNNY     59  51  76 N10       30.37S
KNOXVILLE *    SUNNY     59  50  72 N10       30.36R
MARSHALLTOWN   SUNNY     58  53  84 N13       30.38R
NEWTON *       SUNNY     59  52  77 N13       30.37S
PELLA *        SUNNY     60  52  74 N9        30.38R
PERRY *          N/A     57  54  89 N7        30.42R
$$

IAZ004>006-015-016-023>025-035-036-291600-
   NORTH CENTRAL IOWA

CITY           SKY/WX    TMP DP  RH WIND       PRES   REMARKS
ALGONA *       FOG       50  48  93 N7        30.46R VSB<1/4
CLARION *      CLOUDY    54  54 100 VRB6      30.43S
ESTHERVILLE    CLOUDY    49  49 100 NE7       30.47R FOG
FORT DODGE *   CLOUDY    48  45  87 N5        30.45R VSB 3/4
MASON CITY     CLOUDY    57  52  83 N9        30.45R
FOREST CITY *  CLOUDY    52  52 100 NE6       30.45R
WEBSTER CITY * CLOUDY    52  52 100 N9        30.41R FOG
IOWA FALLS *     N/A     58  53  82 N9        30.41S
$$

IAZ007>011-017>019-026>030-037>042-050>054-066-291600-
   NORTHEAST IOWA

CITY           SKY/WX    TMP DP  RH WIND       PRES   REMARKS
CEDAR RAPIDS   SUNNY     60  53  77 N14       30.33R
CHARLES CITY * SUNNY     55  52  88 N8G16     30.41R
CLINTON *      MOSUNNY   59  52  77 N17       30.28R
DECORAH *      SUNNY     57  52  82 N10       30.39R
DUBUQUE        SUNNY     58  51  78 N16       30.32R
MONTICELLO *   SUNNY     61  52  72 N13       30.32R
OELWEIN *      SUNNY     57  52  82 N12       30.38R
WATERLOO       SUNNY     60  52  74 N10       30.37R
$$

IAZ064-065-067-068-078-291600-
   EAST CENTRAL IOWA

CITY           SKY/WX    TMP DP  RH WIND       PRES   REMARKS
DAVENPORT      SUNNY     59  52  77 N15       30.28R
IOWA CITY      SUNNY     61  51  70 N13       30.33R
MT. PLEASANT * SUNNY     62  53  73 N15       30.30S
MUSCATINE *    SUNNY     61  52  72 N16       30.29S
QUAD CITIES    CLOUDY    60  51  72 N10       30.27R
$$

IAZ062-063-075>077-085>089-095>099-291600-
   SOUTHEAST IOWA

CITY           SKY/WX    TMP DP  RH WIND       PRES   REMARKS
BURLINGTON     MOSUNNY   55  53  93 N13       30.27S
FAIRFIELD *    SUNNY     59  50  72 N14G21    30.32R
FORT MADISON * SUNNY     59  52  77 N14G20    30.29R
KEOKUK *       SUNNY     59  52  77 N14       30.28R
OSKALOOSA *      N/A     59  52  76 N13G18    30.34R
OTTUMWA        SUNNY     61  52  72 N14       30.34R
WASHINGTON *     N/A    N/A N/A N/A MISG        N/A
$$

ABBREVIATIONS USED IN REMARKS
   TC - TEMPERATURES IN CELSIUS
  WCI - WIND CHILL INDEX
   HX - HEAT INDEX
  VSB - VISIBILITY
$$





USA.gov is the U.S. government's official web portal to all federal, state and local government web resources and services.